This is the latest recevied weather packets stored in our database for station/object WI5ARD. If no packets are shown the sender has not sent any weather packets the latest 10 day(s).
| Time | Temp. | Humidity | Pressure | Rain* | Wind** | Luminosity | Snow |
|---|---|---|---|---|---|---|---|
| 1777381819 | 22.22° C | 96% | 1019.7 hPa | 0 mm | - | 88 W/m² | - |
| 1777378819 | 21.11° C | 96% | 1019.7 hPa | 0 mm | - | 49 W/m² | - |
| 1777378541 | 21.11° C | 96% | 1019.8 hPa | 0 mm | - | 46 W/m² | - |
| 1777377922 | 21.11° C | 96% | 1019.4 hPa | 0 mm | - | 35 W/m² | - |
| 1777377321 | 20.56° C | 96% | 1019.1 hPa | 0 mm | - | 35 W/m² | - |
| 1777376419 | 20.56° C | 96% | 1018.9 hPa | 0 mm | - | 11 W/m² | - |
| 1777376120 | 21.11° C | 96% | 1018.9 hPa | 0 mm | - | 7 W/m² | - |
| 1777374934 | 21.11° C | 96% | 1018.5 hPa | 0 mm | - | 0 W/m² | - |
| 1777370721 | 21.11° C | 96% | 1017.5 hPa | 0 mm | - | 0 W/m² | - |
| 1777368919 | 21.11° C | 95% | 1017.6 hPa | 0 mm | - | 0 W/m² | - |
| 1777368632 | 20.56° C | 95% | 1017.4 hPa | 0 mm | - | 0 W/m² | - |
| 1777368319 | 20.56° C | 95% | 1017.4 hPa | 0 mm | - | 0 W/m² | - |
| 1777367121 | 20.56° C | 95% | 1017.4 hPa | 0 mm | - | 0 W/m² | - |
| 1777366837 | 20.56° C | 95% | 1017.4 hPa | 0 mm | - | 0 W/m² | - |
| 1777366521 | 20.56° C | 95% | 1017.5 hPa | 0 mm | - | 0 W/m² | - |
| 1777364722 | 20.56° C | 95% | 1017.6 hPa | 0 mm | - | 0 W/m² | - |
| 1777364140 | 20.56° C | 95% | 1017.9 hPa | 0 mm | - | 0 W/m² | - |
| 1777363519 | 20.56° C | 95% | 1017.9 hPa | 0 mm | - | 0 W/m² | - |
| 1777362921 | 20.56° C | 95% | 1017.9 hPa | 0 mm | - | 0 W/m² | - |
| 1777361722 | 20.56° C | 94% | 1017.8 hPa | 0 mm | - | 0 W/m² | - |
| 1777359921 | 20.56° C | 94% | 1017.6 hPa | 0 mm | - | 0 W/m² | - |
| 1777359636 | 20.56° C | 94% | 1017.6 hPa | 0 mm | - | 0 W/m² | - |
| 1777358422 | 20.56° C | 94% | 1018 hPa | 0 mm | - | 0 W/m² | - |
| 1777356943 | 20.56° C | 93% | 1018.3 hPa | 0 mm | - | 0 W/m² | - |
| 1777356037 | 20.56° C | 93% | 1018.1 hPa | 0 mm | - | 0 W/m² | - |
* Rain latest hour (hover to see other rain measurements)
** Current wind speed in m/s (hover to see current wind gust speed)